| time (UTC) | temp C | wind direction | speed KPH | gust KPH | rain 1hr cm | rain 24hr cm | rain mn cm | humidity % | barometer mb |
| 20260504044555 | 11 | 240 | 0.0 | 3.2 | 0.00 | 0.00 | 0.00 | 49 | 1012.8 |
| 20260504043101 | 11 | 246 | 0.0 | 1.6 | 0.00 | 0.00 | 0.00 | 49 | 1012.7 |
| 20260504041551 | 11 | 249 | 0.0 | 3.2 | 0.00 | 0.00 | 0.00 | 49 | 1012.5 |
| 20260504040110 | 11 | 249 | 0.0 | 4.8 | 0.00 | 0.00 | 0.00 | 49 | 1012.4 |
| 20260504034548 | 11 | 248 | 0.0 | 3.2 | 0.00 | 0.00 | 0.00 | 48 | 1012.5 |
| 20260504033047 | 11 | 253 | 0.0 | 1.6 | 0.00 | 0.00 | 0.00 | 48 | 1012.4 |
| 20260504031548 | 11 | 220 | 0.0 | 3.2 | 0.00 | 0.00 | 0.00 | 47 | 1012.4 |
| 20260504030046 | 11 | 248 | 0.0 | 3.2 | 0.00 | 0.00 | 0.00 | 45 | 1012.4 |
| 20260504024548 | 11 | 254 | 0.0 | 3.2 | 0.00 | 0.00 | 0.00 | 45 | 1012.3 |
| 20260504023053 | 11 | 255 | 0.0 | 1.6 | 0.00 | 0.00 | 0.00 | 47 | 1012.4 |
| 20260504021547 | 11 | 249 | 0.0 | 3.2 | 0.00 | 0.00 | 0.00 | 47 | 1012.4 |
| 20260504020046 | 11 | 282 | 0.0 | 0.0 | 0.00 | 0.00 | 0.00 | 46 | 1012.5 |
| 20260504014556 | 12 | 288 | 0.0 | 0.0 | 0.00 | 0.00 | 0.00 | 43 | 1012.3 |
| 20260504013042 | 12 | 289 | 0.0 | 0.0 | 0.00 | 0.00 | 0.00 | 42 | 1012.2 |
| 20260504011543 | 12 | 292 | 0.0 | 0.0 | 0.00 | 0.00 | 0.00 | 40 | 1012.1 |
| 20260504010049 | 13 | 292 | 0.0 | 0.0 | 0.00 | 0.00 | 0.00 | 39 | 1011.9 |
| 20260504004545 | 13 | 292 | 0.0 | 0.0 | 0.00 | 0.00 | 0.00 | 37 | 1011.7 |
| 20260504003043 | 14 | 296 | 0.0 | 0.0 | 0.00 | 0.00 | 0.00 | 35 | 1011.5 |
| 20260504001555 | 14 | 290 | 0.0 | 6.4 | 0.00 | 0.00 | 0.00 | 33 | 1011.2 |
| 20260504000040 | 15 | 241 | 0.0 | 16.1 | 0.00 | 0.00 | 0.00 | 32 | 1011.0 |
| 20260503234540 | 15 | 314 | 0.0 | 9.7 | 0.00 | 0.00 | 0.00 | 31 | 1010.8 |
| 20260503233042 | 15 | 276 | 0.0 | 9.7 | 0.00 | 0.00 | 0.00 | 31 | 1010.6 |
| 20260503231538 | 15 | 319 | 1.6 | 14.5 | 0.00 | 0.00 | 0.00 | 30 | 1010.6 |
| 20260503230038 | 15 | 314 | 1.6 | 12.9 | 0.00 | 0.00 | 0.00 | 30 | 1010.5 |
| 20260503224538 | 15 | 333 | 1.6 | 14.5 | 0.00 | 0.00 | 0.00 | 29 | 1010.3 |
| 20260503223037 | 15 | 291 | 0.0 | 22.5 | 0.00 | 0.00 | 0.00 | 29 | 1010.3 |
| 20260503221536 | 16 | 60 | 0.0 | 20.9 | 0.00 | 0.00 | 0.00 | 29 | 1010.4 |
| 20260503220035 | 15 | 299 | 3.2 | 14.5 | 0.00 | 0.00 | 0.00 | 28 | 1010.3 |
| 20260503214533 | 15 | 303 | 9.7 | 24.1 | 0.00 | 0.00 | 0.00 | 27 | 1010.4 |
| 20260503213033 | 15 | 314 | 1.6 | 17.7 | 0.00 | 0.00 | 0.00 | 29 | 1010.4 |
| 20260503211532 | 15 | 284 | 8.0 | 20.9 | 0.00 | 0.00 | 0.00 | 28 | 1010.4 |
| 20260503210031 | 15 | 239 | 6.4 | 20.9 | 0.00 | 0.00 | 0.00 | 29 | 1010.3 |
| 20260503204534 | 15 | 274 | 3.2 | 22.5 | 0.00 | 0.00 | 0.00 | 30 | 1010.3 |
| 20260503203129 | 15 | 306 | 6.4 | 22.5 | 0.00 | 0.00 | 0.00 | 30 | 1010.5 |
| 20260503201528 | 15 | 278 | 3.2 | 16.1 | 0.00 | 0.00 | 0.00 | 30 | 1010.4 |
| 20260503200026 | 14 | 339 | 8.0 | 27.4 | 0.00 | 0.00 | 0.00 | 29 | 1010.6 |
| 20260503194526 | 14 | 274 | 3.2 | 27.4 | 0.00 | 0.00 | 0.00 | 31 | 1010.6 |
| 20260503193036 | 14 | 261 | 4.8 | 24.1 | 0.00 | 0.00 | 0.00 | 32 | 1010.7 |
| 20260503191521 | 13 | 237 | 6.4 | 29.0 | 0.00 | 0.00 | 0.00 | 32 | 1011.0 |
| 20260503190018 | 13 | 319 | 1.6 | 27.4 | 0.00 | 0.00 | 0.00 | 34 | 1010.9 |
| 20260503184523 | 13 | 306 | 6.4 | 22.5 | 0.00 | 0.00 | 0.00 | 34 | 1011.0 |
| 20260503183016 | 13 | 295 | 8.0 | 25.7 | 0.00 | 0.00 | 0.00 | 34 | 1011.2 |
| 20260503181513 | 13 | 38 | 3.2 | 11.3 | 0.00 | 0.00 | 0.00 | 38 | 1011.3 |
| 20260503180017 | 12 | 330 | 1.6 | 16.1 | 0.00 | 0.00 | 0.00 | 37 | 1011.3 |
| 20260503174509 | 12 | 324 | 6.4 | 22.5 | 0.00 | 0.00 | 0.00 | 38 | 1011.6 |
| 20260503173019 | 12 | 335 | 3.2 | 24.1 | 0.00 | 0.00 | 0.00 | 39 | 1011.5 |
| 20260503171512 | 12 | 319 | 9.7 | 22.5 | 0.00 | 0.00 | 0.00 | 40 | 1011.8 |
| 20260503081518 | 8 | 360 | 0.0 | 3.2 | 0.00 | 0.03 | 0.00 | 53 | 1010.6 |
| 20260503071512 | 8 | 57 | 0.0 | 3.2 | 0.00 | 0.03 | 0.00 | 51 | 1010.5 |